Location: Caltech
(34.1382°N, 118.1253°W)
Time: 13:08:47
(UTC-07:00)

OAO 2 Rocket - Visible Passes

Search period start: 29 August 2014 00:00
Search period end: 08 September 2014 00:00
Orbit: 678 x 749 km, 35.0° (Epoch: 28 August)

Date Brightness Start Highest point End Pass type
(mag) Time Alt. Az. Time Alt. Az. Time Alt. Az.
29 Aug 4.6 04:19:44 30° SSE 04:20:11 30° SSE 04:24:46 10° E visible
30 Aug 5.8 03:25:52 15° ESE 03:25:52 15° ESE 03:27:13 10° E visible
30 Aug 3.6 05:04:53 27° SW 05:07:42 62° SSE 05:12:55 10° E visible
31 Aug 4.0 04:10:59 46° SE 04:10:59 46° SE 04:15:45 10° E visible
31 Aug 3.5 05:50:07 10° W 05:55:27 88° N 06:00:45 10° E visible
01 Sep 5.7 03:17:03 17° E 03:17:03 17° E 03:18:29 10° E visible
01 Sep 3.4 04:56:04 35° WSW 04:58:20 82° SSE 05:03:39 10° E visible
02 Sep 3.8 04:02:08 57° ESE 04:02:08 57° ESE 04:06:32 10° E visible
02 Sep 3.5 05:41:08 12° W 05:46:12 81° N 05:51:30 10° E visible
03 Sep 5.8 03:08:12 17° E 03:08:12 17° E 03:09:23 10° E visible
03 Sep 3.4 04:47:12 42° W 04:49:03 85° N 04:54:23 10° E visible
04 Sep 4.1 03:53:17 51° E 03:53:17 51° E 03:57:16 10° E visible
04 Sep 3.5 05:32:18 14° W 05:36:56 83° N 05:42:15 10° E visible
05 Sep 6.1 02:59:24 14° E 02:59:24 14° E 03:00:08 10° E visible
05 Sep 3.4 04:38:24 51° WNW 04:39:47 81° N 04:45:07 10° E visible
06 Sep 4.5 03:44:34 40° E 03:44:34 40° E 03:47:59 10° E visible
06 Sep 3.4 05:23:35 18° W 05:27:39 85° SSW 05:32:58 10° ESE visible
07 Sep 6.3 02:50:47 10° E 02:50:47 10° E 02:50:50 10° E visible
07 Sep 3.3 04:29:48 67° WNW 04:30:31 85° N 04:35:52 10° E visible
